Princeton, MN

5:07 AM CST on December 12, 2019 (GMT -0600)
Princeton Municipal

Weather History for KPNM - May, 2019

Change the Weather History Date:

Thursday, May 23, 2019

  Actual Average Record
Temperature  
Mean Temperature 56 °F -  
Max Temperature 60 °F 66 °F 84 °F (2006)
Min Temperature 50 °F 42 °F 37 °F (2001)
Degree Days  
Heating Degree Days 10    
Growing Degree Days 6 (Base 50)    
Moisture  
Dew Point 48 °F    
Average Humidity 78    
Maximum Humidity 94    
Minimum Humidity 59    
Precipitation  
Precipitation 0.00 in - - ()
Sea Level Pressure  
Sea Level Pressure 29.96 in    
Wind  
Wind Speed 8 mph (WSW)    
Max Wind Speed 15 mph    
Max Gust Speed 21 mph    
Visibility 10 miles    
Events      
Averages and records for this station are not official NWS values.
T = Trace of Precipitation, MM = Missing Value Source: NWS Daily Summary

Daily Weather History Graph

Daily Weather History Graph

Search for Another Location

Airport or City:

Astronomy

May. 23, 2019 Rise Set
Actual Time 5:35 AM CDT 8:47 PM CDT
Civil Twilight 4:59 AM CDT 9:23 PM CDT
Nautical Twilight 4:13 AM CDT 10:09 PM CDT
Astronomical Twilight 3:16 AM CDT 11:07 PM CDT
Moon 12:32 AM CDT (5/23) 9:38 AM CDT (5/23)
Length of Visible Light 16h 23m
Length of Day
15h 11m
Waning Gibbous, 77% of the Moon is Illuminated
May 23
Waning Gibbous
May 26
Last Quarter
Jun 3
New
Jun 10
First Quarter
Jun 17
Full

Hourly Weather History & Observations

Time (CDT) Temp. Dew Point Humidity Pressure Visibility Wind Dir Wind Speed Gust Speed Precip Events Conditions
12:15 AM 53.6 °F 51.8 °F 94% 29.71 in 10.0 mi SSW 6.9 mph 16.1 mph N/A   Overcast
12:35 AM 53.6 °F 51.8 °F 94% 29.72 in 10.0 mi SSW 8.1 mph - N/A   Mostly Cloudy
12:36 AM 53.6 °F 51.8 °F 94% 29.72 in 10.0 mi SSW 8.1 mph - N/A   Mostly Cloudy
12:55 AM 53.6 °F 51.8 °F 94% 29.73 in 10.0 mi SW 6.9 mph - N/A   Mostly Cloudy
1:15 AM 53.6 °F 51.8 °F 94% 29.73 in 10.0 mi SW 8.1 mph - N/A   Overcast
1:35 AM 53.6 °F 51.8 °F 94% 29.74 in 10.0 mi SW 8.1 mph - N/A   Overcast
1:36 AM 53.6 °F 51.8 °F 94% 29.74 in 10.0 mi SW 6.9 mph - N/A   Overcast
1:55 AM 53.6 °F 51.8 °F 94% 29.74 in 10.0 mi SW 5.8 mph - N/A   Overcast
2:15 AM 53.6 °F 50.0 °F 88% 29.74 in 10.0 mi SW 5.8 mph - N/A   Overcast
2:35 AM 53.6 °F 50.0 °F 88% 29.75 in 10.0 mi SW 8.1 mph - N/A   Overcast
2:36 AM 53.6 °F 50.0 °F 88% 29.75 in 10.0 mi SW 8.1 mph - N/A   Overcast
2:55 AM 53.6 °F 50.0 °F 88% 29.76 in 10.0 mi WSW 6.9 mph - N/A   Overcast
2:56 AM 53.6 °F 50.0 °F 88% 29.76 in 10.0 mi WSW 6.9 mph - N/A   Overcast
3:15 AM 53.6 °F 48.2 °F 82% 29.77 in 10.0 mi SW 6.9 mph - N/A   Overcast
3:35 AM 51.8 °F 48.2 °F 88% 29.78 in 10.0 mi WSW 12.7 mph 17.3 mph N/A   Overcast
3:55 AM 51.8 °F 48.2 °F 88% 29.79 in 10.0 mi WSW 11.5 mph 16.1 mph N/A   Overcast
4:15 AM 53.6 °F 48.2 °F 82% 29.80 in 10.0 mi WSW 9.2 mph - N/A   Overcast
4:16 AM 53.6 °F 48.2 °F 82% 29.80 in 10.0 mi WSW 8.1 mph - N/A   Overcast
4:35 AM 51.8 °F 48.2 °F 88% 29.81 in 10.0 mi SW 8.1 mph - N/A   Overcast
4:36 AM 51.8 °F 48.2 °F 88% 29.81 in 10.0 mi SW 10.4 mph - N/A   Overcast
4:55 AM 51.8 °F 48.2 °F 88% 29.81 in 10.0 mi WSW 11.5 mph 19.6 mph N/A   Overcast
5:15 AM 51.8 °F 48.2 °F 88% 29.82 in 10.0 mi WSW 10.4 mph - N/A   Overcast
5:16 AM 51.8 °F 48.2 °F 88% 29.83 in 10.0 mi WSW 9.2 mph - N/A   Overcast
5:35 AM 51.8 °F 46.4 °F 82% 29.84 in 10.0 mi WSW 9.2 mph 16.1 mph N/A   Overcast
5:36 AM 51.8 °F 46.4 °F 82% 29.84 in 10.0 mi WSW 10.4 mph 16.1 mph N/A   Overcast
5:55 AM 51.8 °F 46.4 °F 82% 29.85 in 10.0 mi WSW 11.5 mph 16.1 mph N/A   Overcast
6:15 AM 51.8 °F 46.4 °F 82% 29.85 in 10.0 mi WSW 12.7 mph 17.3 mph N/A   Overcast
6:16 AM 51.8 °F 46.4 °F 82% 29.85 in 10.0 mi WSW 12.7 mph 17.3 mph N/A   Overcast
6:35 AM 51.8 °F 46.4 °F 82% 29.86 in 10.0 mi WSW 13.8 mph 18.4 mph N/A   Overcast
6:36 AM 51.8 °F 46.4 °F 82% 29.87 in 10.0 mi WSW 12.7 mph 18.4 mph N/A   Overcast
6:55 AM 51.8 °F 46.4 °F 82% 29.88 in 10.0 mi WSW 10.4 mph 19.6 mph N/A   Overcast
6:56 AM 51.8 °F 46.4 °F 82% 29.88 in 10.0 mi West 11.5 mph 19.6 mph N/A   Overcast
7:15 AM 51.8 °F 46.4 °F 82% 29.89 in 10.0 mi West 10.4 mph 18.4 mph N/A   Overcast
7:35 AM 51.8 °F 46.4 °F 82% 29.90 in 10.0 mi West 10.4 mph 20.7 mph N/A   Overcast
7:55 AM 51.8 °F 46.4 °F 82% 29.91 in 10.0 mi WSW 12.7 mph 18.4 mph N/A   Overcast
7:56 AM 51.8 °F 46.4 °F 82% 29.91 in 10.0 mi WSW 10.4 mph 18.4 mph N/A   Overcast
8:15 AM 51.8 °F 46.4 °F 82% 29.92 in 10.0 mi West 12.7 mph 17.3 mph N/A   Overcast
8:16 AM 51.8 °F 46.4 °F 82% 29.92 in 10.0 mi West 11.5 mph 17.3 mph N/A   Overcast
8:35 AM 53.6 °F 46.4 °F 77% 29.93 in 10.0 mi West 9.2 mph - N/A   Overcast
8:36 AM 53.6 °F 46.4 °F 77% 29.93 in 10.0 mi WSW 10.4 mph - N/A   Overcast
8:55 AM 53.6 °F 46.4 °F 77% 29.93 in 10.0 mi West 9.2 mph - N/A   Overcast
8:56 AM 53.6 °F 46.4 °F 77% 29.94 in 10.0 mi West 10.4 mph - N/A   Overcast
9:15 AM 53.6 °F 46.4 °F 77% 29.95 in 10.0 mi WSW 9.2 mph - N/A   Overcast
9:35 AM 53.6 °F 46.4 °F 77% 29.95 in 10.0 mi West 9.2 mph - N/A   Overcast
9:55 AM 53.6 °F 46.4 °F 77% 29.98 in 10.0 mi West 11.5 mph 19.6 mph N/A   Overcast
9:56 AM 53.6 °F 46.4 °F 77% 29.98 in 10.0 mi West 13.8 mph 19.6 mph N/A   Overcast
10:15 AM 55.4 °F 46.4 °F 72% 29.98 in 10.0 mi West 12.7 mph 17.3 mph N/A   Overcast
10:16 AM 55.4 °F 46.4 °F 72% 29.97 in 10.0 mi West 12.7 mph 17.3 mph N/A   Overcast
10:35 AM 55.4 °F 48.2 °F 77% 29.98 in 10.0 mi West 11.5 mph - N/A   Overcast
10:55 AM 55.4 °F 46.4 °F 72% 29.99 in 10.0 mi West 15.0 mph - N/A   Overcast
11:15 AM 55.4 °F 46.4 °F 72% 29.99 in 10.0 mi West 10.4 mph 19.6 mph N/A   Overcast
11:35 AM 57.2 °F 48.2 °F 72% 29.99 in 10.0 mi West 12.7 mph 17.3 mph N/A   Overcast
11:55 AM 57.2 °F 46.4 °F 67% 30.02 in 10.0 mi West 10.4 mph 19.6 mph N/A   Overcast
11:56 AM 57.2 °F 46.4 °F 67% 30.02 in 10.0 mi West 9.2 mph 19.6 mph N/A   Overcast
12:15 PM 57.2 °F 46.4 °F 67% 30.03 in 10.0 mi West 11.5 mph 18.4 mph N/A   Overcast
12:35 PM 59.0 °F 46.4 °F 63% 30.03 in 10.0 mi West 10.4 mph 18.4 mph N/A   Overcast
12:55 PM 57.2 °F 46.4 °F 67% 30.04 in 10.0 mi WSW 11.5 mph - N/A   Overcast
12:56 PM 57.2 °F 46.4 °F 67% 30.04 in 10.0 mi WSW 10.4 mph - N/A   Overcast
1:15 PM 59.0 °F 48.2 °F 67% 30.04 in 10.0 mi West 11.5 mph - N/A   Overcast
1:59 PM 59.0 °F 48.2 °F 67% 30.04 in 10.0 mi West 10.4 mph - N/A   Overcast
2:15 PM 59.0 °F 46.4 °F 63% 30.05 in 10.0 mi West 6.9 mph - N/A   Overcast
2:35 PM 59.0 °F 46.4 °F 63% 30.05 in 10.0 mi West 8.1 mph - N/A   Overcast
2:36 PM 59.0 °F 46.4 °F 63% 30.05 in 10.0 mi West 8.1 mph - N/A   Overcast
2:55 PM 59.0 °F 46.4 °F 63% 30.05 in 10.0 mi West 6.9 mph - N/A   Overcast
2:56 PM 59.0 °F 46.4 °F 63% 30.05 in 10.0 mi West 6.9 mph - N/A   Overcast
3:15 PM 60.8 °F 46.4 °F 59% 30.06 in 10.0 mi WNW 8.1 mph - N/A   Overcast
3:55 PM 59.0 °F 46.4 °F 63% 30.08 in 10.0 mi WNW 8.1 mph - N/A   Overcast
3:56 PM 59.0 °F 46.4 °F 63% 30.08 in 10.0 mi WNW 6.9 mph - N/A   Overcast
4:15 PM 59.0 °F 46.4 °F 63% 30.09 in 10.0 mi West 6.9 mph - N/A   Overcast
4:35 PM 59.0 °F 46.4 °F 63% 30.10 in 10.0 mi West 6.9 mph - N/A   Overcast
4:36 PM 59.0 °F 46.4 °F 63% 30.10 in 10.0 mi West 5.8 mph - N/A   Overcast
4:55 PM 59.0 °F 46.4 °F 63% 30.12 in 10.0 mi WSW 6.9 mph - N/A   Overcast
5:35 PM 57.2 °F 48.2 °F 72% 30.11 in 10.0 mi WSW 5.8 mph - N/A   Overcast
5:36 PM 57.2 °F 48.2 °F 72% 30.11 in 10.0 mi West 5.8 mph - N/A   Overcast
5:55 PM 57.2 °F 48.2 °F 72% 30.11 in 10.0 mi West 5.8 mph - N/A   Overcast
6:15 PM 57.2 °F 48.2 °F 72% 30.12 in 10.0 mi West 4.6 mph - N/A   Overcast
6:35 PM 57.2 °F 48.2 °F 72% 30.11 in 10.0 mi West 5.8 mph - N/A   Overcast
6:36 PM 57.2 °F 48.2 °F 72% 30.11 in 10.0 mi West 5.8 mph - N/A   Overcast
6:55 PM 57.2 °F 48.2 °F 72% 30.12 in 10.0 mi WSW 4.6 mph - N/A   Overcast
6:56 PM 57.2 °F 48.2 °F 72% 30.12 in 10.0 mi WSW 4.6 mph - N/A   Overcast
7:19 PM 57.2 °F 48.2 °F 72% 30.12 in 10.0 mi Calm Calm - N/A   Overcast
7:35 PM 57.2 °F 48.2 °F 72% 30.12 in 10.0 mi Calm Calm - N/A   Overcast
7:55 PM 57.2 °F 48.2 °F 72% 30.11 in 10.0 mi Calm Calm - N/A   Overcast
7:56 PM 57.2 °F 48.2 °F 72% 30.11 in 10.0 mi Calm Calm - N/A   Overcast
8:16 PM 55.4 °F 48.2 °F 77% 30.10 in 10.0 mi Calm Calm - N/A   Overcast
8:35 PM 55.4 °F 48.2 °F 77% 30.10 in 10.0 mi Calm Calm - N/A   Overcast
8:55 PM 55.4 °F 48.2 °F 77% 30.09 in 10.0 mi Calm Calm - N/A   Overcast
9:15 PM 53.6 °F 48.2 °F 82% 30.10 in 10.0 mi Calm Calm - N/A   Overcast
9:35 PM 53.6 °F 48.2 °F 82% 30.10 in 10.0 mi Calm Calm - N/A   Overcast
9:36 PM 53.6 °F 48.2 °F 82% 30.10 in 10.0 mi Calm Calm - N/A   Overcast
9:55 PM 53.6 °F 50.0 °F 88% 30.11 in 10.0 mi Calm Calm - N/A   Overcast
10:15 PM 51.8 °F 48.2 °F 88% 30.10 in 10.0 mi Calm Calm - N/A   Overcast
10:35 PM 53.6 °F 48.2 °F 82% 30.11 in 10.0 mi Calm Calm - N/A   Overcast
10:36 PM 53.6 °F 48.2 °F 82% 30.11 in 10.0 mi Calm Calm - N/A   Overcast
10:55 PM 51.8 °F 48.2 °F 88% 30.10 in 10.0 mi Calm Calm - N/A   Overcast
11:15 PM 51.8 °F 48.2 °F 88% 30.08 in 10.0 mi NNE 3.5 mph - N/A   Scattered Clouds
11:16 PM 51.8 °F 48.2 °F 88% 30.09 in 10.0 mi NNE 3.5 mph - N/A   Scattered Clouds
11:35 PM 51.8 °F 48.2 °F 88% 30.10 in 10.0 mi Calm Calm - N/A   Clear
11:55 PM 50.0 °F 48.2 °F 94% 30.10 in 10.0 mi Calm Calm - N/A   Clear